TimeEDT,TemperatureF,Dew PointF,Humidity,Sea Level PressureIn,VisibilityMPH,Wind Direction,Wind SpeedMPH,Gust SpeedMPH,PrecipitationIn,Events,Conditions,WindDirDegrees,DateUTC
12:35 AM,48.2,48.2,100,29.86,10.0,SSE,4.6,-,N/A,,Clear,160,2012-10-02 04:35:00
1:35 AM,50.0,48.2,94,29.85,10.0,South,4.6,-,N/A,,Clear,170,2012-10-02 05:35:00
1:55 AM,51.8,48.2,88,29.86,10.0,South,5.8,-,N/A,,Clear,170,2012-10-02 05:55:00
2:15 AM,50.0,48.2,94,29.86,10.0,South,4.6,-,N/A,,Clear,170,2012-10-02 06:15:00
2:35 AM,50.0,50.0,100,29.85,10.0,South,3.5,-,N/A,,Clear,170,2012-10-02 06:35:00
2:55 AM,51.8,51.8,100,29.85,10.0,Calm,Calm,-,N/A,,Mostly Cloudy,0,2012-10-02 06:55:00
3:15 AM,48.2,48.2,100,29.85,10.0,West,3.5,-,N/A,,Overcast,260,2012-10-02 07:15:00
3:35 AM,48.2,48.2,100,29.85,10.0,Calm,Calm,-,N/A,,Mostly Cloudy,0,2012-10-02 07:35:00
3:55 AM,48.2,48.2,100,29.85,5.0,Calm,Calm,-,N/A,,Clear,0,2012-10-02 07:55:00
4:15 AM,48.2,48.2,100,29.85,1.8,SSW,4.6,-,N/A,,Mostly Cloudy,200,2012-10-02 08:15:00
4:35 AM,48.2,48.2,100,29.85,0.2,Calm,Calm,-,N/A,,Overcast,0,2012-10-02 08:35:00
6:55 AM,46.4,46.4,100,29.88,10.0,Calm,Calm,-,N/A,,Overcast,0,2012-10-02 10:55:00
7:15 AM,46.4,46.4,100,29.88,10.0,Calm,Calm,-,N/A,,Overcast,0,2012-10-02 11:15:00
7:35 AM,46.4,46.4,100,29.89,10.0,Calm,Calm,-,N/A,,Overcast,0,2012-10-02 11:35:00
7:55 AM,48.2,48.2,100,29.89,9.0,Calm,Calm,-,N/A,,Overcast,0,2012-10-02 11:55:00
8:15 AM,48.2,46.4,93,29.89,9.0,Calm,Calm,-,N/A,,Overcast,0,2012-10-02 12:15:00
8:35 AM,48.2,48.2,100,29.90,10.0,Calm,Calm,-,N/A,,Overcast,0,2012-10-02 12:35:00
8:55 AM,48.2,46.4,93,29.91,10.0,Calm,Calm,-,N/A,,Overcast,0,2012-10-02 12:55:00
9:15 AM,50.0,50.0,100,29.92,10.0,Calm,Calm,-,N/A,,Overcast,0,2012-10-02 13:15:00
9:35 AM,51.8,51.8,100,29.92,10.0,Calm,Calm,-,N/A,,Overcast,0,2012-10-02 13:35:00
9:55 AM,51.8,51.8,100,29.92,10.0,Calm,Calm,-,N/A,,Overcast,0,2012-10-02 13:55:00
10:15 AM,53.6,51.8,94,29.93,10.0,Calm,Calm,-,N/A,,Overcast,0,2012-10-02 14:15:00
10:35 AM,53.6,51.8,94,29.93,10.0,Calm,Calm,-,N/A,,Overcast,0,2012-10-02 14:35:00
10:55 AM,53.6,51.8,94,29.93,10.0,ENE,3.5,-,N/A,,Overcast,70,2012-10-02 14:55:00
11:35 AM,53.6,53.6,100,29.94,10.0,Calm,Calm,-,N/A,,Overcast,0,2012-10-02 15:35:00
11:55 AM,55.4,53.6,94,29.94,10.0,Calm,Calm,-,N/A,,Overcast,0,2012-10-02 15:55:00
12:15 PM,55.4,51.8,88,29.94,10.0,Calm,Calm,-,N/A,,Overcast,0,2012-10-02 16:15:00
8:55 PM,53.6,51.8,94,29.97,10.0,Calm,Calm,-,N/A,,Clear,0,2012-10-03 00:55:00
9:15 PM,51.8,51.8,100,29.97,10.0,Calm,Calm,-,N/A,,Clear,0,2012-10-03 01:15:00
9:35 PM,51.8,50.0,94,29.98,10.0,Calm,Calm,-,N/A,,Clear,0,2012-10-03 01:35:00
9:55 PM,51.8,50.0,94,29.98,9.0,Calm,Calm,-,N/A,,Clear,0,2012-10-03 01:55:00
10:15 PM,50.0,50.0,100,29.98,5.0,ESE,3.5,-,N/A,,Clear,120,2012-10-03 02:15:00